This is the latest recevied weather packets stored in our database for station/object K7DC. If no packets are shown the sender has not sent any weather packets the latest 10 day(s).
| Time | Temp. | Humidity | Pressure | Rain* | Wind** | Luminosity | Snow |
|---|---|---|---|---|---|---|---|
| 1777904612 | 21.67° C | 33% | 1014.2 hPa | 0 mm | - | 112 W/m² | - |
| 1777904310 | 21.67° C | 33% | 1013.9 hPa | 0 mm | - | 113 W/m² | - |
| 1777904007 | 21.67° C | 33% | 1014.1 hPa | 0 mm | - | 152 W/m² | - |
| 1777903703 | 21.67° C | 33% | 1013.9 hPa | 0 mm | - | 122 W/m² | - |
| 1777903399 | 22.22° C | 33% | 1014.3 hPa | 0 mm | - | 136 W/m² | - |
| 1777903096 | 21.67° C | 33% | 1013.9 hPa | 0 mm | - | 154 W/m² | - |
| 1777902186 | 20.56° C | 34% | 1014.3 hPa | 0 mm | - | 73 W/m² | - |
| 1777901885 | 21.11° C | 34% | 1014.2 hPa | 0 mm | - | 52 W/m² | - |
| 1777901582 | 21.11° C | 34% | 1014 hPa | 0 mm | - | 59 W/m² | - |
| 1777901279 | 20.56° C | 34% | 1013.7 hPa | 0 mm | - | 66 W/m² | - |
| 1777900977 | 20.56° C | 34% | 1014 hPa | 0 mm | - | 56 W/m² | - |
| 1777900674 | 20° C | 35% | 1013.7 hPa | 0 mm | - | 42 W/m² | - |
| 1777900371 | 20° C | 35% | 1013.5 hPa | 0 mm | - | 31 W/m² | - |
| 1777900068 | 20° C | 34% | 1013.4 hPa | 0 mm | - | 29 W/m² | - |
| 1777899764 | 20° C | 35% | 1013.4 hPa | 0 mm | - | 22 W/m² | - |
| 1777899461 | 20° C | 35% | 1013.5 hPa | 0 mm | - | 16 W/m² | - |
| 1777898251 | 19.44° C | 36% | 1013.3 hPa | 0 mm | - | 2 W/m² | - |
| 1777897948 | 19.44° C | 36% | 1013.3 hPa | 0 mm | - | 1 W/m² | - |
| 1777897644 | 19.44° C | 36% | 1013.3 hPa | 0 mm | - | 0 W/m² | - |
| 1777897340 | 18.89° C | 36% | 1013.2 hPa | 0 mm | - | 0 W/m² | - |
| 1777897036 | 19.44° C | 35% | 1013 hPa | 0 mm | - | 0 W/m² | - |
| 1777896733 | 19.44° C | 36% | 1013 hPa | 0 mm | - | 0 W/m² | - |
| 1777896430 | 19.44° C | 36% | 1013.2 hPa | 0 mm | - | 0 W/m² | - |
| 1777896128 | 19.44° C | 35% | 1012.8 hPa | 0 mm | - | 0 W/m² | - |
| 1777895826 | 20° C | 34% | 1012.9 hPa | 0 mm | - | 0 W/m² | - |
* Rain latest hour (hover to see other rain measurements)
** Current wind speed in m/s (hover to see current wind gust speed)